Regional Weather Roundup
Issued by NWS Green Bay, WI

Home | Current Version | Previous Version | Text Only | Print | Product List | Glossary On
Versions: 1 2 3 4 5 6 7 8 9 10 11 12 13 14 15 16 17 18 19 20 21 22 23 24 25 26 27 28 29 30 31 32 33 34 35 36 37 38 39 40 41 42 43 44 45 46 47 48 49 50
000
ASUS43 KGRB 010411
RWRGRB

NORTH-CENTRAL AND NORTHEAST WISCONSIN REGIONAL WEATHER ROUNDUP
NATIONAL WEATHER SERVICE GREEN BAY WI
1100 PM CDT FRI JUL 31 2015

WIZ005-009-010>012-018-019-010500-
NORTH CENTRAL WISCONSIN

CITY           SKY/WX    TMP DP  RH WIND       PRES   REMARKS
IRONWOOD       PTCLDY    55  54  94 W3        29.90S
MANITOWISH WTR MOCLDY    55  55 100 CALM      29.94S
ARBOR VITAE    CLOUDY    59  57  92 CALM      29.95R
EAGLE RIVER    PTCLDY    53  53  99 SW3       29.94S
LAND O LAKES   CLEAR     57  54  88 W3        29.94S
RHINELANDER    CLEAR     54  52  93 W6        29.96S
PHILLIPS       CLEAR     59  55  86 CALM      29.96R
ANTIGO         CLOUDY    57  56  98 SW3       29.96S
TOMAHAWK       CLEAR     53  52  97 CALM      29.96S FOG
MERRILL        NOT AVBL
$$

WIZ013-073-010500-
NORTHEAST WISCONSIN

CITY           SKY/WX    TMP DP  RH WIND       PRES   REMARKS
IRON MOUNTAIN  CLEAR     61  51  70 NW5       29.89S
MARINETTE      CLEAR     64  50  59 W5        29.90S
OCONTO         CLEAR     60  54  80 CALM      29.91S
$$

WIZ017-030-035>037-045-010500-
CENTRAL WISCONSIN

CITY           SKY/WX    TMP DP  RH WIND       PRES   REMARKS
MEDFORD        CLEAR     62  53  71 W7        29.98R
WAUSAU         CLEAR     64  56  75 SW5       29.95S
MOSINEE        CLEAR     57  54  88 SW5       29.98S
MARSHFIELD     CLEAR     63  50  62 W7        29.98R
WISC RAPIDS    CLEAR     65  51  60 W8        29.98S
STEVENS POINT  CLEAR     59  53  80 CALM      29.98S
WAUPACA        PTCLDY    64  56  75 CALM      29.96S
SHAWANO        MOCLDY    66  56  70 W5        29.94S
CLINTONVILLE   MOCLDY    63  54  72 W5        29.94S
$$

WIZ038-039-048-051-010500-
FOX VALLEY

CITY           SKY/WX    TMP DP  RH WIND       PRES   REMARKS
NWS GREEN BAY  MOCLDY    63  56  78 W6        29.93S
APPLETON       MOCLDY    66  54  63 VRB5      29.96S
OSHKOSH        CLOUDY    68  54  60 W3        29.95S
FOND DU LAC    MOCLDY    66  53  63 W6        29.96S
$$

WIZ022-050-052-010500-
EAST CENTRAL WISCONSIN

CITY           SKY/WX    TMP DP  RH WIND       PRES   REMARKS
STURGEON BAY   PTCLDY    66  52  59 W6        29.93S
MANITOWOC      PTCLDY    68  53  58 MISG      29.94R
SHEBOYGAN      CLOUDY    69  55  60 NW7       29.95R
$$

LMZ563-521-522-541>543-010500-
LAKESHORE

STATION/POSITION TIME  TEMP    WIND        PRES    VSBY  WAVE
                       AIR SEA DIR/SP/G                  HT/PER
                 (UTC) (F)     (DEG/KT/KT) (MB)    (MI)  (FT/S)
SHEBOYGAN LKSHOR 0400   72     300/ 11/ 12 1014.0R
KEWAUNEE LKSHORE 0300   68     300/  4/  7 1012.6R
ALGOMA MARINA    0312          330/  2/  6   N/A
NORTHPORT PIER   0300   72     290/  6/ 10 1011.9R
N MID LAKE BUOY  0350   70 68  280/  8/ 12 1011.0S         1/ 4
S GREEN BAY BUOY 0300   68 71  280/  8/ 10 1014.3
SISTER BAY LKSHO 0344   72     310/ 16/ 18   N/A
CHAMBERS ISLAND  0300   70     240/  4/  8 1012.2R
MENOMINEE LKSHOR 0300   71     270/  5/ 10 1013.2R
$$


USA.gov is the U.S. government's official web portal to all federal, state and local government web resources and services.